Starlink 30607

operational
NORAD ID: 58099 Int'l Des: 2023-161 Owner: SPXS Country: US Constellation: starlink
LEOCIRCULAR

Über Starlink 30607

Beschreibung wird geladen...

Live-Position

3D-Globus wird geladen...

Nächste Überflüge

Höhenverlauf

Altitude vs Time

uPlot chart will show altitude changes over time

Zweizeiliger Elementsatz

1 58099U 23161C 25302.54792088 .00002024 00000-0 80444-4 0 9991
2 58099 53.1613 44.6469 0001506 91.7815 268.3358 15.30199922114471
Epoch: 29. Okt. 2025 • Age: 10 hours

Aktueller Status

Höhe 492.0 km
Geschwindigkeit 7.62 km/s
Subsatellitenpunkt -46.53°S, 118.44°W
Startdatum 21. Okt. 2023
Alter 2 years
Typ internet

Technische Details

Klassifizierung Payload
Masse 730.00 kg
Trockenmasse 700.00 kg
Gesamtmasse 730.00 kg
Länge 0.30 m
Durchmesser 4.10 m
Spannweite 29.00 m
Form Box + pan
Hersteller SPXS
Bus-Typ Starlink V2M
Phasenstatus In Orbit
Besitzer/Staat SPXS/US

Große Konstellationen

Loading constellations...